User: anonymous   Login
Location: Unspecified
(0.0000°N, 0.0000°E)
Time: 15:11:26
(UTC+00:00)
Language:

Resurs 1-4 - Orbit

View from above orbital plane
View from above orbital plane
View from above satellite
View from above satellite

Ground track
Ground track

The orbit data is extracted from the following two-line orbital elements,

1 25394U 98043A   18051.79291454 -.00000047  00000-0 -16771-5 0  9993
2 25394  98.5889 354.4884 0000806 351.9912   8.1254 14.24454451 19736
Epoch (UTC): 20 February 2018 19:01:47
Eccentricity: 0.0000806
inclination: 98.5889°
perigee height: 810 km
apogee height: 811 km
right ascension of ascending node: 354.4884°
argument of perigee: 351.9912°
revolutions per day: 14.24454451
mean anomaly at epoch: 8.1254°
orbit number at epoch: 1973

The dashed part of the orbit path shows where the satellite is in the earth's shadow,  

DLR